Location: Hoover
(45.1124°N, 103.2678°W)
Time: 02:50:55
(UTC+00:00)

N. Korean satellite - Pass Details

Date: 04 December 2020
Orbit: 453 x 502 km, 97.2° (Epoch: 16 January)

Event Time Altitude Azimuth Distance (km) Brightness Sun altitude
Rises 12:13:24 0° 15° (NNE) 2,575 10.3 -20.8°
Reaches altitude 10° 12:15:30 10° 19° (NNE) 1,696 9.4 -20.4°
Maximum altitude 12:19:07 60° 100° (E) 573 7.1 -19.8°
Drops below altitude 10° 12:22:45 10° 182° (S) 1,700 9.4 -19.2°
Sets 12:24:50 0° 185° (S) 2,582 10.4 -18.8°
